Location: Ferchesar
(52.6477°N, 12.4298°E)
Time: 10:10:36
(UTC+01:00)

S-56A Canister/Altair - Pass Details

Date: 08 December 2021
Orbit: 633 x 2499 km, 38.9° (Epoch: 19 January)

Event Time Altitude Azimuth Distance (km) Brightness Sun altitude
Rises 02:06:21 0° 258° (WSW) 4,828 - -51.9°
Reaches altitude 10° 02:10:36 10° 247° (WSW) 3,490 - -51.3°
Maximum altitude 02:17:00 25° 198° (SSW) 2,060 - -50.6°
Drops below altitude 10° 02:21:49 10° 145° (SE) 2,551 - -50.0°
Sets 02:24:25 0° 131° (SE) 3,298 - -49.7°
